Location: Banska Bystrica
(48.7330°N, 19.1500°E)
Time: 11:18:59
(UTC+02:00)

Tiangong 2 - Visible Passes

Search period start: 24 May 2019 00:00
Search period end: 03 June 2019 00:00
Orbit: 379 x 387 km, 42.8° (Epoch: 24 May)

Date Brightness Start Highest point End Pass type
(mag) Time Alt. Az. Time Alt. Az. Time Alt. Az.
24 May 2.2 22:13:52 10° WSW 22:16:32 25° S 22:16:54 25° S visible
25 May 2.2 21:13:56 10° WSW 21:16:40 27° S 21:19:23 10° ESE visible
25 May 3.2 22:50:39 10° WSW 22:51:43 15° SW 22:51:43 15° SW visible
26 May 2.5 21:50:29 10° WSW 21:52:59 22° SSW 21:54:18 17° SSE visible
27 May 3.3 22:27:38 10° SW 22:29:00 13° SSW 22:29:00 13° SSW visible
28 May 2.9 21:27:11 10° WSW 21:29:25 18° SSW 21:31:33 10° SSE visible
